Corpus Christi, TX

2:17 AM CST on January 20, 2017 (GMT -0600)
Corpus Christi International

Weather History for KCRP - November, 2013

Change the Weather History Date:

Tuesday, November 12, 2013

  Actual Average Record
Temperature  
Mean Temperature 67 °F 67 °F  
Max Temperature 77 °F 77 °F 91 °F (1969)
Min Temperature 57 °F 57 °F 37 °F (1907)
Degree Days  
Heating Degree Days 0 2  
Month to date heating degree days 5 19  
Since 1 July heating degree days 5 29  
Cooling Degree Days 2 4  
Month to date cooling degree days 62 66  
Year to date cooling degree days 4045 3417  
Growing Degree Days 17 (Base 50)    
Moisture  
Dew Point 52 °F    
Average Humidity 68    
Maximum Humidity 93    
Minimum Humidity 43    
Precipitation  
Precipitation 0.00 in 0.08 in 0.86 in (2001)
Month to date precipitation 0.52 0.99  
Year to date precipitation 20.29 28.95  
Snow  
Snow 0.00 in - - ()
Month to date snowfall 0.0  
Since 1 July snowfall 0.0  
Since 1 September snowfall 0.0  
Snow Depth 0.00 in    
Sea Level Pressure  
Sea Level Pressure 30.35 in    
Wind  
Wind Speed 17 mph (NNE)    
Max Wind Speed 29 mph    
Max Gust Speed 33 mph    
Visibility 10 miles    
Events      
T = Trace of Precipitation, MM = Missing Value Source: NWS Daily Summary

Daily Weather History Graph

Daily Weather History Graph

Search for Another Location

Airport or City:

Trip Planner

Search our weather history database for the weather conditions in past years. The results will help you decide how hot, cold, wet, or windy it might be!

Date:

Astronomy

Nov. 12, 2013 Rise Set
Actual Time 6:49 AM CST 5:38 PM CST
Civil Twilight 6:24 AM CST 6:03 PM CST
Nautical Twilight 5:56 AM CST 6:31 PM CST
Astronomical Twilight 5:28 AM CST 6:59 PM CST
Moon 2:31 PM CST (11/12) 2:05 AM CST (11/12)
Length of Visible Light 11h 39m
Length of Day
10h 49m
Waxing Gibbous, 76% of the Moon is Illuminated
Nov 12
Waxing Gibbous
Nov 17
Full
Nov 25
Last Quarter
Dec 2
New
Dec 9
First Quarter

Hourly Weather History & Observations

Time (CST) Temp. Dew Point Humidity Pressure Visibility Wind Dir Wind Speed Gust Speed Precip Events Conditions
12:51 AM 64.0 °F 60.1 °F 87% 30.19 in 10.0 mi NNW 3.5 mph - N/A   Scattered Clouds
1:51 AM 63.0 °F 57.9 °F 84% 30.20 in 10.0 mi North 4.6 mph - N/A   Mostly Cloudy
2:51 AM 63.0 °F 60.1 °F 90% 30.20 in 10.0 mi North 4.6 mph - N/A   Mostly Cloudy
3:51 AM 63.0 °F 59.0 °F 87% 30.21 in 10.0 mi North 6.9 mph - N/A   Scattered Clouds
4:51 AM 63.0 °F 59.0 °F 87% 30.22 in 10.0 mi North 6.9 mph - N/A   Mostly Cloudy
5:51 AM 63.0 °F 57.9 °F 84% 30.24 in 10.0 mi North 11.5 mph - N/A   Mostly Cloudy
6:51 AM 62.1 °F 55.9 °F 80% 30.27 in 10.0 mi North 10.4 mph - N/A   Mostly Cloudy
7:51 AM 62.1 °F 55.0 °F 78% 30.30 in 10.0 mi North 12.7 mph - N/A   Mostly Cloudy
8:51 AM 64.0 °F 55.0 °F 73% 30.32 in 10.0 mi NNE 18.4 mph - N/A   Mostly Cloudy
9:51 AM 66.9 °F 54.0 °F 63% 30.34 in 10.0 mi NE 19.6 mph - N/A   Mostly Cloudy
10:51 AM 71.1 °F 52.0 °F 51% 30.34 in 10.0 mi NNE 21.9 mph 28.8 mph N/A   Mostly Cloudy
11:51 AM 73.0 °F 50.0 °F 44% 30.33 in 10.0 mi NE 21.9 mph 31.1 mph N/A   Mostly Cloudy
12:51 PM 73.0 °F 51.1 °F 46% 30.31 in 10.0 mi NNE 24.2 mph 28.8 mph N/A   Mostly Cloudy
1:51 PM 75.0 °F 51.1 °F 43% 30.31 in 10.0 mi NNE 23.0 mph 31.1 mph N/A   Mostly Cloudy
2:51 PM 75.9 °F 52.0 °F 43% 30.32 in 10.0 mi NNE 23.0 mph 32.2 mph N/A   Scattered Clouds
3:51 PM 68.0 °F 54.0 °F 61% 30.35 in 10.0 mi North 26.5 mph 33.4 mph N/A   Mostly Cloudy
4:51 PM 64.0 °F 51.1 °F 63% 30.38 in 10.0 mi North 20.7 mph - N/A   Mostly Cloudy
5:51 PM 61.0 °F 50.0 °F 67% 30.40 in 10.0 mi North 16.1 mph - N/A   Partly Cloudy
6:51 PM 60.1 °F 48.9 °F 67% 30.44 in 10.0 mi North 19.6 mph - N/A   Partly Cloudy
7:45 PM 59.0 °F 48.2 °F 67% 30.47 in 10.0 mi North 17.3 mph - N/A   Mostly Cloudy
7:51 PM 59.0 °F 48.9 °F 69% 30.47 in 10.0 mi North 23.0 mph 31.1 mph N/A   Overcast
8:51 PM 59.0 °F 46.9 °F 64% 30.51 in 10.0 mi North 25.3 mph 29.9 mph N/A   Overcast
9:51 PM 59.0 °F 46.0 °F 62% 30.52 in 10.0 mi North 18.4 mph 26.5 mph N/A   Overcast
10:51 PM 57.9 °F 45.0 °F 62% 30.54 in 10.0 mi North 21.9 mph 29.9 mph N/A   Overcast
11:51 PM 57.0 °F 44.1 °F 62% 30.53 in 10.0 mi North 19.6 mph - N/A   Overcast